CAPE
0 0 0 0 0 0 0 0 0 0 0 0 0 0 0 0 0 0 0 0 0 0 0 0 0 0 0 0 0 0 606 1156 1200 811 398 69 8 1 4 2 0 0 0 0
0 0 0 0 0 0 0 0 0 0 0 0 0 0 0 0 0 0 0 0 0 0 0 0 0 0 0 0 0 0 42 431 962 500 214 68 1 3 1 2 0 0 1 0
0 0 0 0 0 0 0 0 0 0 0 0 0 0 0 0 0 0 0 0 0 0 0 0 0 0 0 0 0 0 1 113 316 238 103 1 2 3 4 2 4 3 3 2
0 1 0 0 0 0 0 0 0 0 0 0 0 0 0 0 0 0 0 2 0 0 0 0 0 0 0 0 0 0 0 63 5 33 0 2 3 3 2 4 4 4 3 2
1 0 0 0 0 0 0 0 0 0 0 0 0 0 0 0 0 0 0 0 0 0 0 0 0 0 0 0 0 0 0 0 0 0 0 2 2 4 5 5 4 3 3 2
0 0 0 0 0 0 0 0 0 0 0 0 0 0 0 0 0 0 0 0 0 0 0 0 0 0 0 0 0 0 0 0 0 0 0 1 1 4 2 3 3 2 3 2
0 0 0 0 0 0 0 0 0 0 0 0 0 0 0 0 0 0 0 0 0 0 0 0 0 0 0 0 0 0 0 0 0 0 0 0 2 3 5 4 4 4 3 2
0 2 1 0 0 0 0 0 0 0 0 0 0 0 0 0 0 0 0 0 0 0 0 0 0 0 0 0 0 0 0 0 0 0 0 2 3 4 2 4 4 4 4 2
1 0 0 0 0 0 0 0 0 0 0 0 0 0 0 0 0 0 0 0 0 0 0 0 0 0 0 0 0 0 0 0 0 0 1 2 2 4 3 3 3 4 2 2
0 0 0 0 0 0 0 0 0 0 0 0 0 0 0 0 0 0 0 0 0 0 0 0 0 0 0 0 0 0 0 0 0 1 1 1 1 2 2 2 2 3 2 2
0 0 0 0 0 0 0 0 0 0 0 0 0 0 0 0 0 0 0 0 0 0 0 0 0 0 0 0 0 0 0 0 0 0 2 1 1 1 1 0 1 3 2 2
0 0 0 0 0 0 0 0 0 0 0 0 0 0 0 0 0 0 0 0 0 0 0 0 0 0 0 0 0 0 0 0 1 1 1 1 0 0 0 0 0 0 1 0
0 0 0 0 0 0 0 0 0 0 0 0 0 0 0 0 0 0 0 0 0 0 0 0 0 0 0 0 0 0 0 1 2 1 1 2 2 2 0 0 0 0 0 0
0 0 0 0 0 0 0 0 0 0 0 0 0 0 0 0 0 0 0 0 0 0 0 0 0 0 0 0 0 0 0 1 1 2 2 3 3 3 2 1 0 3 3 1
0 0 0 0 0 0 0 0 0 0 0 0 0 0 0 0 0 0 0 0 0 0 0 0 0 0 0 0 0 0 0 1 1 1 1 1 2 2 2 3 4 2 1 0
0 0 0 0 0 0 0 1 0 0 0 2 1 0 0 0 0 0 0 0 1 0 2 1 1 1 1 1 1 1 1 1 1 1 1 1 2 3 3 3 2 2 1 1
0 0 0 1 1 1 1 1 2 3 1 1 1 1 0 0 1 1 1 0 0 1 1 1 1 0 0 1 1 2 1 1 1 1 1 2 2 1 1 1 1 1 0 2
0 0 2 1 2 2 1 1 2 2 2 2 2 2 1 1 1 1 1 0 1 0 0 0 0 0 0 0 0 0 1 1 1 1 1 1 1 1 2 1 0 0 0 0
1 1 2 2 1 1 1 1 1 1 0 1 0 0 1 1 1 1 1 1 1 1 0 0 0 0 0 0 1 1 1 1 1 1 1 1 1 0 0 0 0 0 0 0
1 2 1 1 1 1 0 0 0 0 1 0 1 0 0 0 1 1 0 0 1 1 1 1 1 1 1 1 1 2 1 1 0 0 0 0 0 0 0 0 0 0 0 0
3 0 0 0 0 0 0 0 1 0 0 0 1 1 1 1 0 1 0 0 1 2 1 1 0 0 0 0 0 2 1 1 0 0 0 0 0 0 0 0 0 0 0 0
0 0 0 0 1 1 1 1 1 1 0 0 0 0 0 1 1 1 2 1 3 3 2 4 4 0 1 0 1 0 0 0 0 0 0 0 0 0 0 0 0 0 0 0
0 2 0 1 1 1 2 2 1 2 2 2 2 3 3 3 1 0 0 3 0 0 0 0 0 0 0 0 0 0 0 0 0 0 0 0 0 0 0 0 0 0 0 0
1 1 0 0 0 0 0 3 3 2 2 2 1 1 1 0 0 1 0 0 0 0 0 0 0 0 0 0 0 0 0 0 0 0 0 0 0 0 0 0 0 0 0 0
0 0 0 0 0 1 1 0 0 0 0 0 0 0 1 1 0 0 0 0 0 0 0 0 0 0 0 0 0 0 0 0 0 0 0 0 0 0 0 0 0 0 0 0
0 2 2 1 1 1 0 0 0 0 0 0 0 0 0 0 0 0 0 0 0 0 0 0 0 0 0 0 0 0 0 0 0 0 0 0 0 0 0 0 0 0 0 0
2 0 0 0 0 0 0 0 0 0 0 0 0 0 0 0 0 0 0 0 0 0 0 0 0 0 0 0 0 0 0 0 0 0 0 0 0 0 0 0 0 0 0 0
CIN
-0 -0 -0 -0 -0 -0 -0 -0 -0 -0 -0 -0 -0 -0 -0 -0 -0 -0 -0 -0 -0 -0 -0 -0 -0 -0 -0 -0 -0 -0 -71 -17 -44 -126 -259 -487 -619 -0 -0 -0 -0 -0 -0 -0
-0 -0 -0 -0 -0 -0 -0 -0 -0 -0 -0 -0 -0 -0 -0 -0 -0 -0 -0 -0 -0 -0 -0 -0 -0 -0 -0 -0 -0 -0 -259 -65 -4 -129 -273 -365 -0 -0 -0 -0 -0 -0 -0 -0
-0 -0 -0 -0 -0 -0 -0 -0 -0 -0 -0 -0 -0 -0 -0 -0 -0 -0 -0 -0 -0 -0 -0 -0 -0 -0 -0 -0 -0 -0 -21 -207 -90 -123 -246 -0 -0 -0 -0 -0 -0 -0 -0 -0
-0 -1 -0 -0 -0 -0 -0 -0 -0 -0 -0 -0 -0 -0 -0 -0 -0 -0 -0 -11 -0 -0 -0 -0 -0 -0 -0 -0 -0 -0 -0 -304 -312 -236 -117 -0 -0 -0 -0 -0 -0 -0 -0 -0
-1 -1 -0 -0 -0 -0 -0 -0 -0 -0 -0 -0 -0 -0 -0 -0 -0 -0 -0 -0 -0 -0 -0 -0 -0 -0 -0 -0 -0 -0 -0 -0 -0 -0 -0 -0 -0 -0 -0 -0 -0 -0 -0 -0
-1 -2 -0 -0 -0 -0 -0 -0 -0 -0 -0 -0 -0 -0 -0 -0 -0 -0 -0 -0 -0 -0 -0 -0 -0 -0 -0 -0 -0 -0 -0 -0 -0 -0 -0 -0 -0 -0 -0 -0 -0 -0 -0 -0
-0 -3 -0 -0 -0 -0 -0 -0 -0 -0 -0 -0 -0 -0 -0 -0 -0 -0 -0 -0 -0 -0 -0 -0 -0 -0 -0 -0 -0 -0 -0 -0 -0 -0 -0 -0 -0 -0 -0 -0 -0 -0 -0 -0
-1 -2 -2 -0 -0 -0 -0 -0 -0 -0 -0 -0 -0 -0 -0 -0 -0 -0 -0 -0 -0 -0 -0 -0 -0 -0 -0 -0 -0 -0 -0 -0 -0 -0 -0 -0 -0 -0 -0 -0 -0 -0 -0 -0
-10 -0 -0 -0 -0 -0 -0 -0 -0 -0 -0 -0 -0 -0 -0 -0 -0 -0 -0 -0 -0 -0 -0 -0 -0 -0 -0 -0 -0 -0 -0 -0 -0 -0 -0 -0 -0 -0 -0 -0 -0 -0 -0 -0
-0 -0 -0 -0 -0 -0 -0 -0 -0 -0 -0 -0 -0 -0 -0 -0 -0 -0 -0 -0 -0 -0 -0 -0 -0 -0 -0 -0 -0 -0 -0 -0 -0 -0 -0 -0 -0 -0 -0 -0 -0 -0 -0 -0
-0 -0 -0 -0 -0 -0 -0 -0 -0 -0 -0 -0 -0 -0 -0 -0 -0 -0 -0 -0 -0 -0 -0 -0 -0 -0 -0 -0 -0 -0 -0 -0 -0 -0 -0 -0 -0 -0 -0 -0 -0 -0 -0 -0
-0 -0 -0 -0 -0 -0 -0 -0 -0 -0 -0 -0 -0 -0 -0 -0 -0 -0 -0 -0 -0 -0 -0 -0 -0 -0 -0 -0 -0 -0 -0 -0 -0 -0 -0 -0 -0 -0 -0 -0 -0 -0 -0 -0
-0 -0 -0 -0 -0 -0 -0 -0 -0 -0 -0 -0 -0 -0 -0 -0 -0 -0 -0 -0 -0 -0 -0 -0 -0 -0 -0 -0 -0 -0 -0 -0 -0 -0 -0 -0 -0 -0 -0 -0 -0 -0 -0 -0
-0 -0 -0 -0 -0 -0 -0 -0 -0 -0 -0 -0 -0 -0 -0 -0 -0 -0 -0 -0 -0 -0 -0 -0 -0 -0 -0 -0 -0 -0 -0 -0 -0 -0 -0 -0 -0 -0 -0 -0 -0 -0 -0 -0
-0 -0 -0 -0 -0 -0 -0 -0 -0 -0 -0 -0 -0 -0 -0 -0 -0 -0 -0 -0 -0 -0 -0 -0 -0 -0 -0 -0 -0 -0 -0 -0 -0 -0 -0 -0 -0 -0 -0 -0 -0 -0 -0 -0
-0 -0 -0 -0 -0 -0 -0 -0 -0 -0 -0 -0 -0 -0 -0 -0 -0 -0 -0 -0 -0 -0 -0 -0 -0 -0 -0 -0 -0 -0 -0 -0 -0 -0 -0 -0 -0 -0 -0 -0 -0 -0 -0 -0
-0 -0 -0 -0 -0 -0 -0 -0 -0 -0 -0 -0 -0 -0 -0 -0 -0 -0 -0 -0 -0 -0 -0 -0 -0 -0 -0 -0 -0 -0 -0 -0 -0 -0 -0 -0 -0 -0 -0 -0 -0 -0 -0 -0
-0 -0 -0 -0 -0 -0 -0 -0 -0 -0 -0 -0 -0 -0 -0 -0 -0 -0 -0 -0 -0 -0 -0 -0 -0 -0 -0 -0 -0 -0 -0 -0 -0 -0 -0 -0 -0 -0 -0 -0 -0 -0 -0 -0
-0 -0 -0 -0 -0 -0 -0 -0 -0 -0 -0 -0 -0 -0 -0 -0 -0 -0 -0 -0 -0 -0 -0 -0 -0 -0 -0 -0 -0 -0 -0 -0 -0 -0 -0 -0 -0 -0 -0 -0 -0 -0 -0 -0
-0 -0 -0 -0 -0 -0 -0 -0 -0 -0 -0 -0 -0 -0 -0 -0 -0 -0 -0 -0 -0 -0 -0 -0 -0 -0 -0 -0 -0 -0 -0 -0 -0 -0 -0 -0 -0 -0 -0 -0 -0 -0 -0 -0
-0 -0 -0 -0 -0 -0 -0 -0 -0 -0 -0 -0 -0 -0 -0 -0 -0 -0 -0 -0 -0 -0 -0 -0 -0 -0 -0 -0 -0 -0 -0 -0 -0 -0 -0 -0 -0 -0 -0 -0 -0 -0 -0 -0
-0 -0 -0 -0 -0 -0 -0 -0 -0 -0 -0 -0 -0 -0 -0 -0 -0 -0 -0 -0 -0 -0 -0 -0 -0 -0 -0 -0 -0 -0 -0 -0 -0 -0 -0 -0 -0 -0 -0 -0 -0 -0 -0 -0
-0 -0 -0 -0 -0 -0 -0 -0 -0 -0 -0 -0 -0 -0 -0 -0 -0 -0 -0 -0 -0 -0 -0 -0 -0 -0 -0 -0 -0 -0 -0 -0 -0 -0 -0 -0 -0 -0 -0 -0 -0 -0 -0 -0
-0 -0 -0 -0 -0 -0 -0 -0 -0 -0 -0 -0 -0 -0 -0 -0 -0 -0 -0 -0 -0 -0 -0 -0 -0 -0 -0 -0 -0 -0 -0 -0 -0 -0 -0 -0 -0 -0 -0 -0 -0 -0 -0 -0
-0 -0 -0 -0 -0 -0 -0 -0 -0 -0 -0 -0 -0 -0 -0 -0 -0 -0 -0 -0 -0 -0 -0 -0 -0 -0 -0 -0 -0 -0 -0 -0 -0 -0 -0 -0 -0 -0 -0 -0 -0 -0 -0 -0
-0 -0 -0 -0 -0 -0 -0 -0 -0 -0 -0 -0 -0 -0 -0 -0 -0 -0 -0 -0 -0 -0 -0 -0 -0 -0 -0 -0 -0 -0 -0 -0 -0 -0 -0 -0 -0 -0 -0 -0 -0 -0 -0 -0
-0 -0 -0 -0 -0 -0 -0 -0 -0 -0 -0 -0 -0 -0 -0 -0 -0 -0 -0 -0 -0 -0 -0 -0 -0 -0 -0 -0 -0 -0 -0 -0 -0 -0 -0 -0 -0 -0 -0 -0 -0 -0 -0 -0
Wind_Speed
34 35 36 37 36 38 41 38 43 53 50 63 66 64 63 58 55 52 47 47 49 49 49 49 49 49 49 49 46 43 41 36 32 29 29 27 26 27 23 21 19 17 15 13
42 37 38 44 38 37 38 41 45 49 54 47 56 54 53 54 51 48 49 49 46 46 48 49 49 50 51 50 48 44 41 38 33 27 26 28 26 24 22 22 20 16 16 14
40 33 39 49 37 34 36 34 35 44 42 47 49 50 50 52 50 51 48 48 44 46 47 48 48 49 50 51 50 46 43 37 31 30 29 26 23 23 22 21 19 18 16 14
42 40 45 37 30 31 32 34 34 37 40 42 46 51 55 51 50 49 51 41 44 48 50 50 49 48 49 48 49 48 45 39 33 30 30 27 25 24 21 19 18 17 15 13
36 38 47 49 35 32 35 43 35 36 39 42 43 47 55 45 41 42 39 43 47 50 51 52 51 50 49 49 49 48 48 48 43 34 31 29 26 24 22 19 18 17 16 14
33 40 45 42 38 33 29 42 35 30 32 34 38 43 52 44 40 39 44 47 52 51 50 50 51 49 51 51 49 50 51 53 47 38 35 33 31 26 22 21 19 17 16 14
33 38 41 36 33 30 39 44 40 35 37 39 40 38 47 47 47 44 47 50 50 49 53 52 50 49 52 51 52 51 52 52 46 43 35 34 31 28 26 22 18 16 15 14
31 36 44 31 32 28 30 38 46 46 44 45 49 54 44 46 49 54 50 48 45 48 51 52 49 49 53 54 53 53 54 53 44 35 32 25 28 26 22 18 17 16 15 13
27 34 31 33 39 46 49 50 51 50 60 50 49 52 53 54 54 47 43 44 46 46 49 51 50 48 55 55 50 52 53 51 40 33 29 27 21 20 20 18 15 15 14 13
40 40 41 42 46 42 46 50 47 44 48 52 49 53 54 53 50 49 48 47 46 44 46 52 51 52 49 50 48 47 50 42 32 27 27 26 23 19 17 17 17 17 16 16
39 38 38 33 31 36 42 43 46 49 46 49 45 44 49 53 52 48 47 50 47 47 44 53 53 52 48 45 42 40 39 31 23 19 23 22 20 21 19 19 19 19 18 16
32 28 34 29 26 42 40 41 44 46 55 50 41 47 48 49 50 44 44 48 50 46 41 53 51 48 43 39 35 34 31 26 22 17 15 15 16 16 15 15 14 13 11 11
23 22 24 26 27 45 43 45 48 46 44 50 53 45 48 47 49 49 52 46 42 45 44 49 45 43 39 35 30 30 26 20 18 16 13 12 13 13 13 8 7 9 10 11
18 21 22 24 22 37 37 40 45 45 38 45 45 52 46 47 48 44 48 43 43 42 40 40 39 38 35 30 25 26 23 21 19 16 12 11 11 11 9 10 9 8 8 8
26 28 25 30 37 43 46 49 51 51 54 56 49 45 44 44 43 43 39 36 35 33 35 33 33 32 27 23 19 19 16 16 10 10 8 7 6 6 8 8 8 7 6 8
31 30 31 36 41 47 51 52 52 54 52 47 32 35 33 29 30 30 30 28 28 30 27 27 26 24 21 19 18 16 15 12 8 7 6 5 6 5 5 5 5 6 6 7
36 39 43 47 48 50 51 51 50 50 49 48 47 17 14 19 21 22 22 21 20 20 21 20 19 19 18 18 16 14 14 12 7 4 3 1 1 1 2 3 4 4 4 5
35 34 35 34 35 46 42 41 40 39 39 38 34 25 19 17 17 17 17 16 16 16 16 16 16 16 17 16 14 14 13 11 9 7 6 5 3 1 2 2 2 3 2 2
36 34 37 37 36 35 35 34 34 33 32 31 29 26 22 18 16 16 18 19 17 14 16 16 16 17 17 17 15 16 15 14 12 10 9 8 7 5 5 4 2 1 1 1
34 33 35 33 33 32 31 31 31 31 30 29 27 25 23 19 18 21 23 20 20 16 16 19 21 22 22 21 21 20 20 20 18 17 14 12 10 9 7 6 5 4 3 4
32 32 32 31 29 28 28 31 34 34 32 29 27 26 25 24 23 24 22 22 18 19 21 23 22 22 22 22 22 22 20 19 17 16 14 13 12 11 10 9 9 8 7 7
28 29 31 31 31 29 29 33 36 36 33 31 29 27 26 26 26 28 25 23 19 21 23 24 24 25 24 25 24 22 21 19 18 17 17 16 15 14 13 13 12 12 12 12
25 26 28 28 26 25 27 31 32 34 33 30 28 28 28 26 23 24 23 19 21 23 24 24 25 26 25 25 25 24 23 22 21 20 19 18 17 17 16 16 16 17 18 18
21 23 25 25 24 25 27 26 28 29 30 30 29 26 25 26 26 24 23 23 24 26 26 26 27 27 26 26 26 25 24 24 23 23 22 22 21 21 21 21 21 22 22 23
18 20 21 23 24 25 24 25 26 26 27 28 27 26 27 27 29 27 27 27 28 28 28 28 29 29 28 28 28 27 27 27 26 26 25 26 26 26 26 26 27 28 29 29
16 17 18 19 22 21 21 21 23 22 23 25 26 26 26 27 27 28 29 30 30 30 31 31 31 31 31 31 30 30 29 29 29 29 29 29 30 30 31 32 33 34 34 35
15 16 17 18 20 21 21 22 23 24 24 25 26 26 27 28 29 29 30 31 32 32 32 33 33 33 33 33 32 32 32 32 32 31 32 32 33 33 34 35 35 36 36 37
Wind_Direction
297 299 299 296 294 294 293 294 294 295 296 292 293 297 296 298 301 302 303 305 305 304 304 306 305 305 304 303 300 303 299 297 286 279 268 264 262 260 256 252 251 252 255 251
297 299 298 295 294 293 292 292 293 295 293 298 299 300 300 299 300 300 302 305 305 306 306 306 307 305 302 301 301 298 296 292 291 278 269 263 261 256 253 253 254 252 250 247
298 305 304 297 300 295 297 298 295 294 296 301 300 299 302 302 300 299 301 303 304 307 308 309 310 308 304 301 299 296 290 289 294 285 271 266 260 256 255 255 252 253 252 247
297 303 295 306 317 312 304 303 300 298 299 302 300 298 299 301 303 301 300 299 304 306 307 309 310 309 305 303 299 294 290 283 288 290 278 269 263 260 257 257 254 252 250 247
297 299 301 304 311 309 308 304 304 301 304 304 306 304 297 304 308 304 302 302 304 304 306 307 307 307 304 301 300 297 286 280 276 276 283 274 265 260 258 255 256 256 251 246
299 299 300 307 316 315 314 301 315 313 313 313 313 307 301 311 311 309 306 304 302 302 303 305 307 307 303 299 300 296 291 282 280 276 274 276 265 257 254 255 256 255 253 242
292 296 300 311 317 315 303 306 313 314 311 313 309 309 306 305 306 310 309 306 305 304 300 299 305 306 300 298 297 296 293 287 278 270 267 266 263 263 253 254 253 250 249 249
299 297 300 315 313 302 310 315 310 306 306 306 304 301 305 305 306 304 307 306 309 308 304 300 304 304 299 296 297 294 292 288 277 272 266 265 259 257 255 251 248 246 244 244
297 300 309 311 306 303 304 306 304 303 294 306 304 303 298 296 298 307 311 312 311 311 308 304 301 304 298 297 300 295 294 289 279 269 263 257 248 250 251 247 244 243 235 233
302 299 304 301 303 304 307 305 306 305 305 305 303 299 293 296 298 304 303 307 312 314 314 305 301 299 302 300 299 298 294 292 283 269 261 253 254 250 245 242 241 241 240 236
303 306 309 305 305 310 312 313 309 306 305 304 305 304 301 295 297 302 305 304 307 310 315 301 298 296 300 300 299 299 301 301 288 271 258 252 256 256 254 252 243 239 240 235
305 310 312 306 292 316 315 315 312 309 304 305 307 303 304 300 296 305 307 305 302 306 314 295 293 297 300 300 302 301 303 305 285 269 259 249 251 260 265 257 253 249 237 223
296 293 301 302 303 315 315 313 310 311 311 306 300 305 303 301 300 300 296 305 307 305 311 295 296 299 298 299 303 298 305 310 288 270 253 249 246 243 246 257 238 216 198 189
311 319 288 319 300 325 324 321 317 314 313 309 307 301 302 301 301 302 299 302 303 305 309 300 302 297 297 304 310 303 308 297 289 268 259 251 246 243 233 220 222 227 197 199
335 333 328 329 325 321 320 318 316 314 310 304 307 305 304 301 301 301 302 306 304 309 302 305 303 300 305 312 321 309 315 317 303 280 266 237 225 223 229 230 229 218 196 157
336 335 332 329 325 323 321 318 317 287 285 278 284 312 310 308 309 309 307 308 309 300 309 306 304 306 318 321 323 329 324 330 318 291 259 232 232 229 228 223 199 184 181 177
336 334 333 329 328 324 319 311 313 305 308 302 293 300 297 322 325 322 316 317 317 321 312 308 314 320 328 334 325 330 349 346 339 318 342 351 270 251 200 180 168 173 183 191
338 338 338 339 341 322 307 318 328 332 321 320 327 340 341 346 335 339 333 349 356 341 322 324 331 341 346 354 6 15 15 16 14 13 15 13 7 48 105 124 144 148 173 213
344 348 347 348 350 345 340 335 337 341 348 354 1 8 12 15 13 12 22 20 5 349 347 350 357 4 7 10 12 22 29 31 30 32 38 45 45 44 53 66 71 73 102 126
353 358 356 0 357 356 353 356 2 7 10 16 22 22 24 17 19 29 32 28 21 19 21 26 30 30 32 32 35 37 40 42 43 43 42 39 38 42 40 35 20 358 339 317
3 6 13 13 5 2 3 17 30 30 28 26 29 31 33 32 32 35 37 37 23 27 30 30 29 26 25 29 31 31 30 29 27 22 18 13 8 3 357 355 353 345 338 329
19 21 33 34 32 27 25 33 39 39 36 35 35 36 38 37 39 42 37 36 27 28 28 26 25 26 26 27 25 24 22 19 17 15 14 12 11 5 2 359 356 350 340 334
35 37 38 33 25 24 28 31 33 37 37 33 32 33 36 34 29 32 30 15 22 21 22 19 18 20 21 20 20 19 17 14 11 8 3 358 355 350 347 345 340 333 326 321
35 33 36 30 25 25 26 21 29 31 34 34 32 26 28 31 29 22 22 17 18 20 18 14 14 14 14 12 10 9 6 3 359 356 353 351 347 343 341 335 329 325 322 318
30 26 25 30 27 27 24 28 31 28 31 30 26 23 25 24 32 23 21 18 16 15 12 8 7 7 6 5 3 0 357 354 351 348 344 340 335 333 330 326 323 319 316 314
23 16 15 16 22 18 16 16 22 16 18 22 19 15 16 16 17 18 17 15 14 12 11 8 7 7 5 3 1 358 355 351 347 344 340 336 332 329 325 322 319 317 315 313
24 15 14 14 12 15 17 18 20 17 17 20 23 16 17 17 17 17 17 16 15 14 13 11 9 7 5 3 0 357 354 351 349 346 342 338 334 330 327 324 321 318 316 315